Regional Weather Roundup
Issued by NWS

Home | Current Version | Previous Version | Graphics & Text | Print | Product List | Glossary On
Versions: 1 2 3 4 5 6 7 8 9 10 11 12 13 14 15 16 17 18 19 20 21 22 23 24 25 26 27 28 29 30 31 32 33 34 35 36 37 38 39 40 41 42 43 44 45 46 47 48 49 50
105
ASUS43 KBIS 270502
RWRND

NORTH DAKOTA REGIONAL WEATHER ROUNDUP
NATIONAL WEATHER SERVICE BISMARCK ND
1200 AM CDT SAT AUG 27 2016

NOTE: "FAIR" INDICATES FEW OR NO CLOUDS BELOW 12,000 FEET WITH NO
SIGNIFICANT WEATHER AND/OR OBSTRUCTIONS TO VISIBILITY.


NDZ001>003-009>011-017-270600-
NORTHWEST NORTH DAKOTA

CITY           SKY/WX    TMP DP  RH WIND       PRES   REMARKS
WILLISTON      PTCLDY    54  45  71 W3        29.95S
MINOT          PTCLDY    62  52  69 SW3       29.92F
MINOT AFB      CLOUDY    61  53  75 S8        29.91F
$$

NDZ018>021-031>035-040>046-270600-
SOUTHWEST NORTH DAKOTA

CITY           SKY/WX    TMP DP  RH WIND       PRES   REMARKS
BISMARCK       CLEAR     55  53  93 SE8       30.00F
DICKINSON      PTCLDY    51  47  86 S8        29.97F
GARRISON         N/A     56  55  97 SW8       29.96S
HETTINGER ARPT CLOUDY    56  53  90 SE7       30.01R
$$

NDZ004>008-012>016-024-026-027-054-270600-
NORTHEAST NORTH DAKOTA

CITY           SKY/WX    TMP DP  RH WIND       PRES   REMARKS
GRAND FORKS    CLEAR     56  51  84 S8        30.01R
GRND FRKS AFB  CLEAR     55  50  85 S9        30.01S
DEVILS LAKE    MOCLDY    61  52  72 S16       30.00R
$$

NDZ022-023-025-028>030-036>039-047>053-270600-
SOUTHEAST NORTH DAKOTA

CITY           SKY/WX    TMP DP  RH WIND       PRES   REMARKS
FARGO          CLOUDY    63  55  75 S5        30.04S
JAMESTOWN      CLOUDY    56  53  90 SE6       30.02S
$$





USA.gov is the U.S. government's official web portal to all federal, state and local government web resources and services.